Location: *
(50.2903°S, 172.5375°W)
Time: 23:15:39
(UTC+00:00)

Cosmos 2297 - Pass Details

Date: 17 November 2019
Orbit: 835 x 860 km, 71.0° (Epoch: 11 December)

Event Time Altitude Azimuth Distance (km) Brightness Sun altitude
Exits shadow 13:37:26 20° 329° (NNW) 1,850 4.8 -13.9°
Maximum altitude 13:41:27 85° 242° (WSW) 858 3.7 -13.6°
Drops below altitude 10° 13:47:11 10° 151° (SSE) 2,485 7.6 -13.0°
Sets 13:49:38 0° 150° (SSE) 3,425 8.8 -12.8°
